Weather at Sebba Airport

Public forecast

Using degrees Celsius for public forecast. Weather courtesy of forecast.io.

Closest aviation weather report (METAR) to Sebba Airport

Report is more than 6 hours old.

Closest report is Dori Airport, 47.5 nm (87.9 km) NW. Retrieved 2009/09/21 17:00 UTC (11 years ago):

DFEE 211700Z 14002KT 9/9 FEW020 BKN260 34/21

Closest aviation forecast (TAF) to Sebba Airport

Closest forecast is Diori Hamani International Airport, 97.3 nm (180.3 km) E. Retrieved 2021-01-22 00:33 UTC (5 hours ago):

TAF TAF DRRN 212300Z 2200/2306 04010KT 2500 DU NSC BECMG 2201/2203 3500 TEMPO 2207/2211 10018KT 2000 BLDU